Regional Weather Roundup
Issued by NWS

Home | Current Version | Previous Version | Graphics & Text | Print | Product List | Glossary On
Versions: 1 2 3 4 5 6 7 8 9 10 11 12 13 14 15 16 17 18 19 20 21 22 23 24 25 26 27
000
ASUS45 KBOI 240710
RWRID

IDAHO REGIONAL WEATHER ROUNDUP
NATIONAL WEATHER SERVICE BOISE ID
100 AM MDT FRI MAR 24 2017

NOTE: "FAIR" INDICATES FEW OR NO CLOUDS BELOW 12000 FEET
WITH NO SIGNIFICANT WEATHER AND/OR OBSTRUCTIONS TO VISIBILITY

IDZ012-014-240800-
SOUTHWEST IDAHO


CITY           SKY/WX    TMP DP  RH WIND       PRES   REMARKS
BOISE          PTCLDY    46  25  43 SE12      30.05R
CALDWELL       PTCLDY    44  30  57 SE10      30.05S
MOUNTAIN HOME  CLEAR     38  33  81 S12       30.08R WCI  31
$$

IDZ016-017-240800-
SOUTHCENTRAL IDAHO


CITY           SKY/WX    TMP DP  RH WIND       PRES   REMARKS
BURLEY         CLEAR     33  25  72 SW8       30.09R WCI  26
JEROME         CLEAR     38  27  64 SE8       30.09S WCI  32
TWIN FALLS     CLEAR     36  27  69 S13       30.09S WCI  27
$$

IDZ019>023-240800-
SOUTHEAST IDAHO


CITY           SKY/WX    TMP DP  RH WIND       PRES   REMARKS
IDAHO FALLS    CLEAR     39  25  57 S13       30.08R WCI  31
POCATELLO      CLEAR     41  24  51 S15       30.10R
REXBURG        CLEAR     37  25  61 S13       30.07R WCI  29
$$

IDZ006-010-011-018-031-032-240800-
CENTRAL IDAHO MOUNTAINS


CITY           SKY/WX    TMP DP  RH WIND       PRES   REMARKS
MCCALL         CLEAR     27  22  81 CALM      30.03S
HAILEY         CLEAR     34  27  75 NW5       30.10R WCI  30
STANLEY          N/A     22  17  81 CALM      30.08S
SALMON         CLEAR     30  19  64 CALM      30.03S
CHALLIS        CLEAR     31  22  69 CALM      30.05R
$$

IDZ002-004-006-007-026-240800-
NORTHERN IDAHO


CITY           SKY/WX    TMP DP  RH WIND       PRES   REMARKS
LEWISTON       MOCLDY    42  32  67 SE3       29.99F
LOWELL           N/A     36  33  89 N3        30.10S
COEUR D`ALENE  CLEAR     33  28  81 NE7       30.02S WCI  27
MULLAN PASS    CLEAR     25  22  88 S9        29.97F WCI  15
$$




USA.gov is the U.S. government's official web portal to all federal, state and local government web resources and services.